Meath Environmental Platform

Observations

Time Sensor AQI SAQ Temp °C Hum % Pres Pa CO μg/m³ H₂S μg/m³ NO μg/m³ NO₂ μg/m³ O₃ μg/m³ SO₂ μg/m³ CO₂e PPM VOC PPM PM1 μg/m³ PM2.5 μg/m³ PM4 μg/m³ PM10 μg/m³ TPS µm
Thursday 13 August 2026
07:59 Trim Patrick St 1 22.9 70 38,460 0 0 1.81 12.67 20.95 4.66 6.29 10.2 11.22
07:58 Trim Patrick St 1 22.9 70 38,460 0 0 1.74 3.85 19.04 4.99 4.57 10.18 11.2
07:56 Trim Market St 2 23.3 69 55,104 0.1 0 1.45 8.01 37.72 0 2.14 4.1 6.26
07:56 Trim Patrick St 1 22.9 70 38,460 0 0 1.58 5.27 16.48 5.06 4.57 8.74 9.61
07:55 Trim Market St 2 23.2 69 54,981 0.1 0 1.4 7.61 37.54 0 2.14 3.6 5.63
07:55 Trim Patrick St 1 22.8 70 38,460 0 0 1.38 9.05 25.39 5.33 5.43 9.51 10.46
07:54 Trim Patrick St 1 22.7 70 38,460 0 0.99 1.43 14.29 38.8 5.47 4.57 8.76 9.64
07:53 Trim Market St 2 23.1 69 54,751 0.11 0 1.27 12.22 48.28 0 3.56 4.57 6.9
07:53 Trim Patrick St 1 22.7 71 38,460 0 0 1.4 12.51 21.91 5.28 5.43 8.71 9.58
07:52 Trim Patrick St 1 22.7 71 38,460 0 0 1.4 7.45 22.28 4.77 6.29 10.13 11.14
07:51 Trim Patrick St 2 22.6 71 38,460 0 0.07 1.38 11.87 27.07 5.51 5.43 8.71 9.58
07:50 Trim Patrick St 2 22.6 70 38,460 0 0 1.32 13.52 32.19 5.45 3.71 8.01 8.81
07:49 Trim Market St 2 23 69 54,373 0.08 0 1.41 9.56 46.35 0 2.85 5.04 8.79
07:48 Trim Patrick St 2 22.5 71 38,460 0 0 1.4 13.8 33.32 5.03 5.43 10.15 11.17
07:47 Trim Market St 2 22.9 69 54,259 0.04 0 1.4 5.63 34.82 0 2.14 4.06 7.53
07:47 Trim Patrick St 2 22.5 71 38,460 0 0 1.46 7.64 19.47 4.44 5.43 8.68 9.54
07:46 Trim Patrick St 2 22.4 71 38,460 0 0 1.61 5.52 26.14 5.36 4.57 7.94 8.73
07:45 Trim Patrick St 2 22.4 70 38,460 0 0 1.53 14.4 18.53 4.37 6.29 10.88 11.97
07:44 Trim Patrick St 2 22.4 69 38,460 0 0.82 1.25 7.04 21.14 4.8 5.43 10.29 11.32
07:43 Trim Patrick St 2 22.4 70 38,460 0 2.15 1.49 18.42 41.63 4.89 5.43 8.72 9.59